This demonstration page uses our WeatherBlox Daily Observations layout. Learn more.

40.92945, -100.16068

Hourly Observations for January 21, 2018

Temp ( °F °C ) Dew Point ( °F °C ) Humidity (%) Winds ( mph kmh ) Pressure ( in mb ) Visibility ( mi km ) Precip ( " mm )
12:15 am 00:15 Clear 33 0.5 29 -1.6 86 86 NNE 9 15 29.91 1013 10 16.0934 0 0
12:35 am 00:35 Clear 33 0.3 29 -1.7 87 87 NNE 9 15 29.91 1013 10 16.0934 0 0
12:55 am 00:55 Clear 33 0.3 29 -1.9 85 85 NNE 9 15 29.91 1013 10 16.0934 0 0
1:15 am 01:15 Partly Cloudy 32 0.1 29 -1.9 87 87 NNE 9 15 29.91 1013 10 16.0934 0 0
1:35 am 01:35 Clear 32 0 28 -2 87 87 NNE 12 19 29.91 1013 10 16.0934 0 0
1:55 am 01:55 Partly Cloudy 32 0.1 29 -1.9 87 87 NNE 10 17 29.88 1012 10 16.0934 0 0
2:15 am 02:15 Cloudy 33 0.3 29 -1.8 86 86 NNE 12 19 29.88 1012 10 16.0934 0 0
2:35 am 02:35 Cloudy 33 0.5 29 -1.6 86 86 NNE 10 17 29.88 1012 10 16.0934 0 0
2:55 am 02:55 Cloudy 33 0.6 29 -1.6 85 85 NNE 10 17 29.88 1012 10 16.0934 0 0
3:15 am 03:15 Cloudy 33 0.7 29 -1.5 85 85 NNE 10 17 29.88 1012 10 16.0934 0 0
3:35 am 03:35 Cloudy 33 0.8 30 -1.3 86 86 NNE 9 15 29.88 1012 10 16.0934 0 0
3:55 am 03:55 Cloudy 33 0.8 30 -1.3 86 86 NNE 8 13 29.88 1012 10 16.0934 0 0
4:15 am 04:15 Cloudy 33 0.8 30 -1.3 86 86 NNE 8 13 29.88 1012 10 16.0934 0 0
4:35 am 04:35 Cloudy 33 0.7 30 -1.3 87 87 NNE 10 17 29.88 1012 10 16.0934 0 0
4:55 am 04:55 Cloudy 33 0.7 29 -1.4 86 86 N 12 19 29.88 1012 10 16.0934 0 0
5:15 am 05:15 Cloudy 33 0.6 29 -1.5 86 86 NNE 13 20 29.88 1012 10 16.0934 0 0
5:35 am 05:35 Cloudy 33 0.7 29 -1.5 85 85 NNE 15 24 29.88 1012 10 16.0934 0 0
5:55 am 05:55 Cloudy 33 0.7 29 -1.5 85 85 NNE 15 24 29.88 1012 10 16.0934 0 0
6:15 am 06:15 Cloudy 33 0.8 30 -1.3 86 86 NE 12 19 29.88 1012 10 16.0934 0 0
6:35 am 06:35 Cloudy 33 0.8 30 -1.2 87 87 NE 12 19 29.88 1012 10 16.0934 0 0
6:55 am 06:55 Cloudy 34 1 30 -1 87 87 NNE 9 15 29.88 1012 10 16.0934 0 0
7:15 am 07:15 Cloudy 34 1 31 -0.7 89 89 NE 13 20 29.85 1011 10 16.0934 0 0
7:35 am 07:35 Cloudy 34 1 31 -0.5 90 90 NNE 14 22 29.85 1011 10 16.0934 0 0
7:55 am 07:55 Cloudy 34 1.1 31 -0.5 89 89 NNE 13 20 29.85 1011 10 16.0934 0 0
8:15 am 08:15 Cloudy 34 1.2 31 -0.6 88 88 N 10 17 29.88 1012 10 16.0934 0 0
8:35 am 08:35 Cloudy 34 1.2 30 -0.9 86 86 N 10 17 29.88 1012 10 16.0934 0 0
8:55 am 08:55 Cloudy 34 1.1 30 -0.9 87 87 N 16 26 29.91 1013 10 16.0934 0 0
9:15 am 09:15 Cloudy 34 1 30 -1 87 87 N 12 19 29.91 1013 7 11.26538 0 0
9:35 am 09:35 Cloudy with Light Rain 33 0.8 31 -0.6 90 90 NNE 13 20 29.91 1013 2.5 4.02335 0 0
9:55 am 09:55 Cloudy with Rain 33 0.7 31 -0.4 92 92 NNE 15 24 29.88 1012 2 3.21868 0 0
10:15 am 10:15 Cloudy with Light Drizzle 33 0.7 32 -0.2 94 94 NNE 18 30 29.88 1012 2 3.21868 0 0
10:35 am 10:35 Cloudy with Mist and Fog 33 0.8 32 -0.1 94 94 NNE 17 28 29.85 1011 3 4.82802 0 0
10:55 am 10:55 Cloudy with Mist and Fog 34 0.9 32 -0.1 93 93 N 20 31 29.85 1011 4 6.43736 0 0
11:15 am 11:15 Cloudy with Mist and Fog 34 1 32 -0.1 92 92 NNE 18 30 29.85 1011 5 8.0467 0 0
11:35 am 11:35 Cloudy 33 0.8 31 -0.3 92 92 NNE 21 33 29.85 1011 7 11.26538 0 0
11:55 am 11:55 Cloudy 34 0.9 32 -0.2 92 92 NNE 21 33 29.83 1010 10 16.0934 0 0
12:15 pm 12:15 Cloudy 33 0.8 31 -0.3 92 92 NNE 23 37 29.8 1009 10 16.0934 0 0
12:35 pm 12:35 Cloudy 34 1 31 -0.3 91 91 NNE 26 43 29.77 1008 10 16.0934 0 0
12:55 pm 12:55 Cloudy 34 1 31 -0.4 90 90 NNE 21 33 29.77 1008 7 11.26538 0 0
1:15 pm 13:15 Cloudy 34 1 31 -0.5 90 90 NNE 22 35 29.77 1008 7 11.26538 0 0
1:35 pm 13:35 Cloudy with Mist and Fog 34 1 31 -0.5 90 90 NNE 21 33 29.77 1008 4 6.43736 0 0
1:55 pm 13:55 Cloudy with Light Rain 34 1 31 -0.5 90 90 NNE 21 33 29.77 1008 3 4.82802 0 0
2:15 pm 14:15 Windy with Snow Likely 34 1 31 -0.3 91 91 NNE 20 31 29.77 1008 2 3.21868 0 0
2:35 pm 14:35 Windy with Snow Likely 34 1 31 -0.3 91 91 NNE 21 33 29.77 1008 4 6.43736 0 0
2:55 pm 14:55 Windy with Snow Likely 34 1 31 -0.3 91 91 NNE 21 33 29.77 1008 3 4.82802 0 0
3:15 pm 15:15 Cloudy with Light Rain 34 1 32 -0.1 92 92 NNE 22 35 29.77 1008 3 4.82802 0 0
3:35 pm 15:35 Cloudy with Light Snow 34 1.1 32 -0.1 92 92 NNE 16 26 29.77 1008 7 11.26538 0 0
3:55 pm 15:55 Cloudy with Light Snow 34 1.1 32 -0.2 91 91 NNE 17 28 29.77 1008 3 4.82802 0 0
4:15 pm 16:15 Cloudy with Light Snow 34 1.1 32 0 92 92 NNE 17 28 29.77 1008 2 3.21868 0.01 0.254
4:35 pm 16:35 Cloudy with Light Snow 34 1 32 0 93 93 NNE 14 22 29.77 1008 1 1.60934 0.01 0.254
4:55 pm 16:55 Cloudy with Light Snow 34 1 32 0 93 93 NNE 17 28 29.77 1008 0.5 0.80467 0.02 0.508
5:15 pm 17:15 Cloudy with Light Snow 34 1 32 0 93 93 NNE 12 19 29.77 1008 2 3.21868 0 0
5:35 pm 17:35 Cloudy with Light Snow 34 1 32 0 93 93 NNE 13 20 29.77 1008 2 3.21868 0.01 0.254
5:55 pm 17:55 Cloudy with Light Snow 34 1 32 0 93 93 NNE 15 24 29.77 1008 2.5 4.02335 0.01 0.254
6:15 pm 18:15 Cloudy with Snow 34 1 32 0 93 93 NNE 16 26 29.77 1008 1 1.60934 0.01 0.254
6:35 pm 18:35 Cloudy with Light Snow 34 1 32 -0.1 92 92 NNE 17 28 29.77 1008 1.75 2.816345 0.01 0.254
6:55 pm 18:55 Cloudy with Snow 33 0.7 32 -0.1 94 94 NNE 15 24 29.8 1009 0.5 0.80467 0.02 0.508
7:15 pm 19:15 Cloudy with Light Snow 33 0.7 32 -0.2 94 94 NNE 16 26 29.8 1009 2.5 4.02335 0 0
7:35 pm 19:35 Cloudy with Light Snow 33 0.6 31 -0.3 94 94 NNE 16 26 29.8 1009 2.5 4.02335 0.01 0.254
7:55 pm 19:55 Cloudy with Light Snow 33 0.5 31 -0.5 93 93 NNE 16 26 29.8 1009 1.5 2.41401 0.01 0.254
8:15 pm 20:15 Cloudy with Light Snow 33 0.4 31 -0.5 94 94 NNE 15 24 29.8 1009 1.5 2.41401 0 0
8:35 pm 20:35 Cloudy with Light Snow 32 0.2 31 -0.6 94 94 NNE 17 28 29.8 1009 1.25 2.011675 0.01 0.254
8:55 pm 20:55 Cloudy with Light Snow 33 0.3 31 -0.7 93 93 NNE 18 30 29.77 1008 1.25 2.011675 0.01 0.254
9:15 pm 21:15 Cloudy with Light Snow 32 0.2 31 -0.7 94 94 NNE 18 30 29.77 1008 1.25 2.011675 0 0
9:35 pm 21:35 Cloudy with Light Snow 32 0.2 31 -0.8 93 93 NNE 18 30 29.77 1008 3 4.82802 0 0
9:55 pm 21:55 Cloudy with Light Snow 33 0.3 31 -0.7 93 93 NNE 17 28 29.77 1008 2 3.21868 0.01 0.254
10:15 pm 22:15 Cloudy with Light Rain 33 0.5 31 -0.5 93 93 NNE 16 26 29.77 1008 2 3.21868 0.01 0.254
10:35 pm 22:35 Cloudy with Light Snow 33 0.5 31 -0.6 92 92 NNE 16 26 29.77 1008 2 3.21868 0.02 0.508
10:55 pm 22:55 Cloudy with Light Rain 33 0.6 31 -0.6 92 92 N 14 22 29.74 1007 2.5 4.02335 0.03 0.762
11:15 pm 23:15 Cloudy with Light Rain 33 0.7 31 -0.5 92 92 NNE 12 19 29.74 1007 3 4.82802 0.01 0.254
11:35 pm 23:35 Cloudy with Light Wintry Mix 33 0.6 31 -0.6 92 92 NNE 13 20 29.74 1007 3 4.82802 0.01 0.254
11:55 pm 23:55 Cloudy with Light Rain 33 0.6 31 -0.5 92 92 NNE 12 19 29.74 1007 2.5 4.02335 0.01 0.254

Powered by AerisWeather